#timestamp,LO_Frequency,Hit,StdDev 
1637308815.5,286046996.0,N
1637308835.3,286047003.5,N
1637308855.2,286047003.5,N
1637308875.0,286047002.5,N
1637308875.9,286047002.5,N
1637308895.8,286046999.7,N
1637308915.6,286047001.9,N
1637308935.4,286047007.4,Y
1637308955.3,286047005.6,P
1637308975.1,286047003.7,N
1637308995.9,286047002.1,N
1637309015.7,286047003.3,N
1637309035.5,286047001.2,N
1637309055.4,286046998.2,N
1637309075.2,286046997.1,N
1637309095.0,286046993.9,N
1637309095.9,286046993.9,N
1637309115.8,286046997.3,N
1637309135.6,286046999.9,N
1637309155.5,286046996.9,N
1637309175.3,286046993.5,N
1637309195.1,286046994.8,N
1637309215.9,286046994.2,N
1637309235.7,286046996.9,N
1637309255.5,286046995.1,N
1637309275.4,286046994.1,N
1637309295.2,286046998.7,N
1637309315.1,286046995.5,N
1637309316.0,286046995.5,N
1637309335.8,286046990.4,N
1637309355.6,286046992.5,N
1637309375.5,286046996.0,N
1637309395.3,286046998.0,N
1637309415.1,286046994.2,N
1637309435.9,286046990.5,N
1637309455.7,286046991.2,N
1637309475.6,286046990.5,N
1637309495.4,286046991.2,N
1637309515.2,286046988.9,N
1637309535.1,286046987.4,Y
1637309536.0,286046987.4,P
1637309555.8,286046990.8,N
1637309575.6,286046992.9,N
1637309595.5,286046992.2,N
1637309615.3,286046995.2,N
1637309635.2,286046995.4,N
1637309655.9,286046994.1,N
1637309675.7,286046991.0,Y
1637309695.6,286046997.3,P
1637309715.4,286046998.1,N
1637309735.2,286046998.7,N
1637309755.1,286046996.7,N
1637309756.0,286046996.7,N
1637309775.8,286047004.2,N
1637309795.7,286047001.7,N
1637309815.5,286047000.1,N
1637309835.3,286046997.9,N
1637309855.2,286046992.7,N
1637309875.0,286046996.4,N
1637309875.9,286046996.4,N
1637309895.8,286046995.6,N
1637309915.6,286046999.6,N
1637309935.4,286046997.4,N
1637309955.3,286046994.7,N
1637309975.1,286046996.2,N
1637309995.8,286046998.3,N
1637310015.7,286046998.4,N
1637310035.5,286047001.3,N
1637310055.4,286047003.9,N
1637310075.2,286047001.7,N
1637310095.0,286047001.3,N
1637310095.9,286047001.3,N
1637310115.8,286047000.2,N
1637310135.6,286046998.1,N
1637310155.4,286047000.1,N
1637310175.3,286046996.6,N
1637310195.1,286046993.6,N
1637310215.9,286046994.7,N
1637310235.7,286046993.8,N
1637310255.5,286046992.0,N
1637310275.4,286046993.0,N
1637310295.2,286046997.1,N
1637310315.1,286047000.2,N
1637310316.0,286047000.2,N
1637310335.8,286047000.9,N
1637310355.6,286046999.8,N
1637310375.5,286047001.2,N
1637310395.3,286046993.3,N
1637310415.1,286046992.9,N
1637310435.9,286046989.9,Y
1637310455.7,286046990.6,P
1637310475.6,286046988.9,P
1637310495.4,286046992.7,N
1637310515.2,286046990.2,N
1637310535.1,286046985.7,Y
1637310536.0,286046985.7,P
1637310555.8,286046993.7,N
1637310575.7,286046998.8,N
1637310595.5,286046995.2,N
1637310615.3,286046999.5,N
1637310635.2,286047000.9,N
1637310655.0,286047011.9,N
1637310655.9,286047002.8,N
1637310675.7,286047001.1,N
1637310695.6,286047000.5,N
1637310715.4,286046998.4,N
1637310735.3,286047002.5,N
1637310755.1,286047008.7,N
1637310756.0,286047008.7,N
1637310775.8,286047006.3,N
1637310795.7,286047001.4,N
1637310815.5,286047001.5,N
1637310835.3,286047002.9,N
1637310855.2,286047002.2,N
1637310875.0,286047001.0,N
1637310875.9,286047001.0,N
1637310895.8,286046999.0,N
1637310915.6,286047000.5,N
1637310935.4,286047000.2,N
1637310955.3,286046997.4,N
1637310975.1,286046999.1,N
1637310995.8,286046996.2,N
1637311015.7,286046997.1,N
1637311035.5,286046998.6,N
1637311055.4,286046999.2,N
1637311075.2,286046998.7,N
1637311095.0,286047000.8,N
1637311095.9,286047000.8,N
1637311115.8,286047000.8,N
1637311135.6,286046993.8,N
1637311155.4,286046993.7,N
1637311175.3,286046993.4,N
1637311195.1,286046990.2,N
1637311215.9,286046992.3,N
1637311235.7,286046998.0,N
1637311255.5,286046991.9,N
1637311275.4,286046993.6,N
1637311295.2,286046996.4,N
1637311315.0,286046995.8,N
1637311315.9,286046995.8,N
1637311335.8,286046994.8,N
1637311355.6,286046994.3,N
1637311375.5,286046994.0,N
1637311395.3,286046993.2,N
1637311415.1,286046995.9,N
1637311435.9,286046997.5,N
1637311455.7,286046995.0,N
1637311475.6,286046996.8,N
1637311495.4,286046998.0,N
1637311515.2,286046995.9,N
1637311535.1,286046993.1,N
1637311536.0,286046993.1,N
1637311555.8,286046995.3,N
1637311575.6,286046988.5,Y
1637311595.5,286046994.0,P
1637311615.3,286046995.5,P
1637311635.2,286046994.9,P
1637311655.9,286046992.4,Y
1637311675.7,286046998.4,P
1637311695.6,286046996.5,N
1637311715.4,286046998.4,N
1637311735.2,286047000.3,N
1637311755.1,286046998.9,N
1637311756.0,286046998.9,N
1637311775.8,286046998.8,N
1637311795.7,286046998.1,N
1637311815.5,286047001.9,N
1637311835.3,286046998.1,N
1637311855.2,286047002.5,N
1637311875.0,286047003.1,N
1637311875.9,286047003.1,N
1637311895.8,286047003.4,N
1637311915.6,286047003.2,N
1637311935.4,286047005.5,N
1637311955.3,286047005.2,N
1637311975.1,286047003.2,N
1637311995.8,286047007.2,N
1637312015.7,286047004.8,N
1637312035.5,286047002.6,N
1637312055.4,286047003.8,N
1637312075.2,286046995.6,N
1637312095.0,286046995.9,N
1637312095.9,286046995.9,N
1637312115.8,286046993.1,N
1637312135.6,286046992.0,N
1637312155.4,286046995.5,N
1637312175.3,286046992.5,N
1637312195.1,286046991.3,N
1637312215.9,286046988.6,N
1637312235.7,286046988.8,N
1637312255.5,286046994.4,N
1637312275.4,286046993.4,N
1637312295.2,286046991.2,N
1637312315.0,286046985.7,N
1637312315.9,286046985.7,N
1637312335.8,286046990.7,N
1637312355.6,286046995.0,N
1637312375.5,286046997.1,N
1637312395.3,286046997.5,N
